Regional Weather Roundup
Issued by NWS

Home | Current Version | Previous Version | Graphics & Text | Print | Product List | Glossary On
Versions: 1 2 3 4 5 6 7 8 9 10 11 12 13 14 15 16 17 18 19 20 21 22 23 24 25 26 27 28 29 30 31 32 33 34 35 36 37 38 39 40 41 42 43 44 45 46 47 48 49 50
000
ASUS43 KIND 241109
RWRIN

WEATHER ROUNDUP FOR INDIANA
NATIONAL WEATHER SERVICE INDIANAPOLIS IN
600 AM EST FRI FEB 24 2017

NOTE: "FAIR" INDICATES FEW OR NO CLOUDS BELOW 12,000 FEET WITH NO
SIGNIFICANT WEATHER AND/OR OBSTRUCTIONS TO VISIBILITY.

* - STATION DOES NOT REPORT WEATHER SUCH AS PRECIPITATION OR FOG.

+ - STATION NOT QUALITY CONTROLLED BY THE NATIONAL WEATHER SERVICE.
    USE DATA WITH CAUTION...ESPECIALLY DEWPOINT AND RELATIVE
    HUMIDITY OBSERVATIONS.

INZ001>003-010>013-019-020-241200-
NORTHWEST INDIANA

CITY           SKY/WX    TMP DP  RH WIND       PRES   REMARKS
GARY /AIRPORT/ CLOUDY    39  37  93 VRB6      29.74R
KNOX *+        CLOUDY    59  37  44 S13       29.52S
LA PORTE +     CLOUDY    58  54  88 S8        29.52F
MICHIGAN CITY+ CLOUDY    50  50 100 S5        29.51F FOG
MONTICELLO +   PTCLDY    59  53  81 S9G16     29.53S
RENSSELAER +   PTCLDY    57  54  88 SE15      29.51F
VALPARAISO     CLOUDY    59  55  87 S10       29.51F

$$

LMZ046-743>745-241200-
SOUTHERN LAKE MICHIGAN

STATION/POSITION TIME  TEMP    WIND        PRES    WAVE
                       AIR SEA DIR/SP/G            HT
                 (UTC) (F)     (DEG/KT/KT) (MB)    (FT)
BURNS HARBOR     1105   45     210/  4/  6  999.3
MICHIGAN CITY    1040   46     110/  6/  7   N/A

$$

INZ004-005-014>016-021>024-241200-
NORTH CENTRAL INDIANA

CITY           SKY/WX    TMP DP  RH WIND       PRES   REMARKS
GOSHEN         MOCLDY    50  46  86 SE13      29.56F FOG
LOGANSPORT +   PTCLDY    55  54  94 S12       29.56S
PERU/GRISSOM   CLOUDY    57  57 100 S13       29.55S
ROCHESTER +    PTCLDY    59  54  82 S8        29.55F
SOUTH BEND     CLOUDY    51  51 100 SE7       29.53F FOG
WARSAW +       MOCLDY    52  52 100 SE6       29.56F FOG

$$

INZ006>009-017-018-025>027-241200-
NORTHEAST INDIANA

CITY           SKY/WX    TMP DP  RH WIND       PRES   REMARKS
ANGOLA *+      CLOUDY    45  45 100 SE12      29.60F
AUBURN +       CLOUDY    45  43  93 E6        29.62S FOG
FORT WAYNE     PTCLDY    50  48  93 SE7       29.61F
HUNTINGTON +   CLEAR     56  54  92 S8        29.58F
KENDALLVILLE + CLOUDY    47  47 100 SE10      29.60F FOG

$$

INZ028-029-035-036-043>045-051>053-241200-
WEST CENTRAL INDIANA

CITY           SKY/WX    TMP DP  RH WIND       PRES   REMARKS
LAFAYETTE      MOCLDY    59  55  87 S8        29.54S
TERRE HAUTE    PTCLDY    62  54  74 S18       29.57S

$$

INZ030>032-037>040-046>048-054>057-064-065-241200-
CENTRAL INDIANA

CITY           SKY/WX    TMP DP  RH WIND       PRES   REMARKS
CP ATTERBURY + CLEAR     59  54  82 S10G16    29.63S
FRANKFORT +    PTCLDY    58  55  88 S7        29.58S
GREENWOOD *+   CLOUDY    59  55  85 S12       29.62R
INDIANAPOLIS   CLOUDY    57  52  83 S8        29.61R
-EAGLE CREEK   CLOUDY    56  52  86 SE3       29.60R
KOKOMO +       MOCLDY    57  54  89 S16       29.58F
MARION +       CLOUDY    57  53  86 S13       29.59F
MT COMFORT *+  PTCLDY    57  54  88 S8G18     29.62R
SHELBYVILLE    CLEAR     61  53  75 S14       29.61F
ZIONSVILLE +   PTCLDY    56  53  88 S14       29.59F

$$

INZ033-034-041-042-049-050-058-059-241200-
EAST CENTRAL INDIANA

CITY           SKY/WX    TMP DP  RH WIND       PRES   REMARKS
MUNCIE         CLOUDY    61  54  77 S15       29.61F

$$

INZ060-061-067>069-081>083-085>088-241200-
SOUTHWEST INDIANA

CITY           SKY/WX    TMP DP  RH WIND       PRES   REMARKS
EVANSVILLE     PTCLDY    63  55  75 S12       29.64R
HUNTINGBURG *+ PTCLDY    63  56  78 S17G23    29.64S
WASHINGTON +   PTCLDY    62  53  73 S16G23    29.61R

$$

INZ062-063-066-070>080-084-089>092-241200-
SOUTH CENTRAL AND SOUTHEAST INDIANA

CITY           SKY/WX    TMP DP  RH WIND       PRES   REMARKS
BEDFORD +      MOCLDY   N/A N/A N/A SE7G16    29.62F
BLOOMINGTON    CLOUDY    64  54  69 S14G28    29.62R
MADISON *+     MOCLDY    59  52  77 S6        29.71S
NORTH VERNON + CLEAR     61  55  82 S12       29.67F
SEYMOUR +      PTCLDY    63  54  72 S12       29.66S

$$





USA.gov is the U.S. government's official web portal to all federal, state and local government web resources and services.